• In Deutschland
  • Länderverzeichnis
  • Für 7 Tage
  • Wassertemperatur
  • Satellitenkarten
  • Wetterkarte
  • Widgets
  • user-avatar
    Anmelden

    Stündliche Wetter New Brunswick

    Heute, 26 September, Dienstag

    Zeit Temperatur Niederschläge Wind Luftdruck Luftfeuchtigkeit
    00:00 +23°C° 0 mm 1 m/S 760 mmHg 83%
    01:00 +23°C° 0 mm 1 m/S 760 mmHg 85%
    02:00 +23°C° 0 mm 1 m/S 760 mmHg 86%
    03:00 +23°C° 0 mm 1 m/S 759 mmHg 87%
    04:00 +22°C° 0 mm 1 m/S 759 mmHg 88%
    05:00 +23°C° 0 mm 1 m/S 759 mmHg 87%
    06:00 +23°C° 0 mm 2 m/S 760 mmHg 86%
    07:00 +23°C° 0 mm 2 m/S 760 mmHg 85%
    08:00 +25°C° 0 mm 2 m/S 760 mmHg 78%
    09:00 +27°C° 0 mm 2 m/S 759 mmHg 70%
    10:00 +29°C° 0 mm 2 m/S 759 mmHg 63%
    11:00 +30°C° 0 mm 2 m/S 759 mmHg 59%
    12:00 +31°C° 0 mm 2 m/S 759 mmHg 54%
    13:00 +33°C° 0 mm 3 m/S 758 mmHg 50%
    14:00 +33°C° 0 mm 3 m/S 758 mmHg 51%
    15:00 +31°C° 0 mm 3 m/S 758 mmHg 52%
    16:00 +31°C° 0 mm 3 m/S 757 mmHg 53%
    17:00 +29°C° 0 mm 2 m/S 757 mmHg 59%
    18:00 +28°C° 0 mm 2 m/S 757 mmHg 64%
    19:00 +26°C° 0 mm 2 m/S 757 mmHg 70%
    20:00 +25°C° 0 mm 2 m/S 757 mmHg 73%
    21:00 +24°C° 0 mm 1 m/S 757 mmHg 76%
    22:00 +24°C° 0 mm 1 m/S 757 mmHg 80%
    23:00 +24°C° 0 mm 1 m/S 757 mmHg 80%

    Morgen, 27 September, Mittwoch

    Zeit Temperatur Niederschläge Wind Luftdruck Luftfeuchtigkeit
    00:00 +23°C° 0 mm 1 m/S 757 mmHg 81%
    01:00 +23°C° 0 mm 2 m/S 757 mmHg 82%
    02:00 +23°C° 0 mm 2 m/S 757 mmHg 82%
    03:00 +23°C° 0 mm 2 m/S 757 mmHg 83%
    04:00 +23°C° 0 mm 2 m/S 756 mmHg 83%
    05:00 +23°C° 0 mm 2 m/S 756 mmHg 82%
    06:00 +22°C° 0 mm 3 m/S 756 mmHg 81%
    07:00 +24°C° 0 mm 3 m/S 756 mmHg 80%
    08:00 +26°C° 0 mm 3 m/S 756 mmHg 73%
    09:00 +28°C° 0 mm 3 m/S 756 mmHg 67%
    10:00 +30°C° 0 mm 3 m/S 756 mmHg 61%
    11:00 +31°C° 0 mm 3 m/S 756 mmHg 57%
    12:00 +33°C° 0 mm 3 m/S 755 mmHg 54%
    13:00 +34°C° 0 mm 3 m/S 755 mmHg 51%
    14:00 +33°C° 0 mm 3 m/S 755 mmHg 52%
    15:00 +33°C° 0 mm 3 m/S 754 mmHg 54%
    16:00 +33°C° 0 mm 3 m/S 754 mmHg 55%
    17:00 +30°C° 0 mm 3 m/S 754 mmHg 61%
    18:00 +29°C° 0 mm 2 m/S 754 mmHg 68%
    19:00 +27°C° 0 mm 2 m/S 754 mmHg 74%
    20:00 +26°C° 0 mm 2 m/S 754 mmHg 77%
    21:00 +26°C° 0 mm 2 m/S 754 mmHg 80%
    22:00 +25°C° 0 mm 1 m/S 754 mmHg 84%
    23:00 +25°C° 0 mm 1 m/S 754 mmHg 85%

    übermorgen, 28 September, Donnerstag

    Zeit Temperatur Niederschläge Wind Luftdruck Luftfeuchtigkeit
    00:00 +25°C° 0 mm 1 m/S 753 mmHg 86%
    01:00 +24°C° 0 mm 1 m/S 753 mmHg 87%
    02:00 +24°C° 0 mm 2 m/S 753 mmHg 85%
    03:00 +24°C° 0 mm 3 m/S 753 mmHg 82%
    04:00 +23°C° 0 mm 4 m/S 753 mmHg 80%
    05:00 +22°C° 0 mm 5 m/S 753 mmHg 75%
    06:00 +22°C° 0 mm 6 m/S 753 mmHg 69%
    07:00 +21°C° 0 mm 6 m/S 754 mmHg 64%
    08:00 +21°C° 0 mm 6 m/S 754 mmHg 58%
    09:00 +22°C° 0 mm 6 m/S 754 mmHg 52%
    10:00 +23°C° 0 mm 6 m/S 754 mmHg 46%
    11:00 +23°C° 0 mm 6 m/S 754 mmHg 44%
    12:00 +24°C° 0 mm 6 m/S 753 mmHg 42%
    13:00 +26°C° 0 mm 6 m/S 753 mmHg 39%
    14:00 +24°C° 0 mm 6 m/S 753 mmHg 39%
    15:00 +24°C° 0 mm 6 m/S 753 mmHg 40%
    16:00 +24°C° 0 mm 6 m/S 753 mmHg 40%
    17:00 +22°C° 0 mm 6 m/S 754 mmHg 43%
    18:00 +21°C° 0 mm 6 m/S 755 mmHg 46%
    19:00 +19°C° 0 mm 6 m/S 755 mmHg 48%
    20:00 +17°C° 0 mm 5 m/S 756 mmHg 51%
    21:00 +16°C° 0 mm 5 m/S 756 mmHg 53%
    22:00 +16°C° 0 mm 5 m/S 757 mmHg 55%
    23:00 +15°C° 0 mm 5 m/S 757 mmHg 57%

    29 September, Freitag

    Zeit Temperatur Niederschläge Wind Luftdruck Luftfeuchtigkeit
    00:00 +15°C° 0 mm 4 m/S 758 mmHg 58%
    01:00 +14°C° 0 mm 4 m/S 758 mmHg 60%
    02:00 +14°C° 0 mm 4 m/S 758 mmHg 61%
    03:00 +13°C° 0 mm 3 m/S 759 mmHg 63%
    04:00 +13°C° 0 mm 3 m/S 759 mmHg 64%
    05:00 +13°C° 0 mm 3 m/S 759 mmHg 63%
    06:00 +13°C° 0 mm 3 m/S 760 mmHg 61%
    07:00 +13°C° 0 mm 3 m/S 760 mmHg 59%
    08:00 +14°C° 0 mm 3 m/S 760 mmHg 52%
    09:00 +17°C° 0 mm 3 m/S 760 mmHg 46%
    10:00 +19°C° 0 mm 3 m/S 760 mmHg 40%
    11:00 +20°C° 0 mm 3 m/S 760 mmHg 38%
    12:00 +21°C° 0 mm 3 m/S 759 mmHg 36%
    13:00 +24°C° 0 mm 2 m/S 759 mmHg 34%
    14:00 +24°C° 0 mm 2 m/S 759 mmHg 36%
    15:00 +24°C° 0 mm 2 m/S 759 mmHg 37%
    16:00 +24°C° 0 mm 2 m/S 759 mmHg 39%
    17:00 +21°C° 0 mm 2 m/S 759 mmHg 44%
    18:00 +20°C° 0 mm 3 m/S 759 mmHg 48%
    19:00 +19°C° 0 mm 3 m/S 760 mmHg 53%
    20:00 +18°C° 0,1 mm 3 m/S 760 mmHg 58%
    21:00 +18°C° 0,1 mm 3 m/S 760 mmHg 63%
    22:00 +18°C° 0,1 mm 2 m/S 760 mmHg 67%
    23:00 +17°C° 0,5 mm 2 m/S 760 mmHg 71%

    30 September, Samstag

    Zeit Temperatur Niederschläge Wind Luftdruck Luftfeuchtigkeit
    00:00 +16°C° 0,5 mm 2 m/S 760 mmHg 75%
    01:00 +16°C° 0,5 mm 2 m/S 761 mmHg 79%
    02:00 +15°C° 0,1 mm 2 m/S 761 mmHg 81%
    03:00 +14°C° 0,1 mm 3 m/S 761 mmHg 82%
    04:00 +13°C° 0,1 mm 3 m/S 762 mmHg 83%
    05:00 +13°C° 0 mm 3 m/S 762 mmHg 81%
    06:00 +13°C° 0 mm 3 m/S 763 mmHg 79%
    07:00 +12°C° 0 mm 4 m/S 764 mmHg 77%
    08:00 +14°C° 0 mm 4 m/S 764 mmHg 67%
    09:00 +15°C° 0 mm 4 m/S 765 mmHg 58%
    10:00 +17°C° 0 mm 4 m/S 765 mmHg 48%
    11:00 +18°C° 0 mm 4 m/S 765 mmHg 43%
    12:00 +19°C° 0 mm 4 m/S 765 mmHg 39%
    13:00 +20°C° 0 mm 4 m/S 765 mmHg 34%
    14:00 +20°C° 0 mm 4 m/S 765 mmHg 34%
    15:00 +20°C° 0 mm 3 m/S 765 mmHg 34%
    16:00 +20°C° 0 mm 3 m/S 765 mmHg 35%
    17:00 +18°C° 0 mm 3 m/S 765 mmHg 38%
    18:00 +17°C° 0 mm 3 m/S 766 mmHg 41%
    19:00 +14°C° 0 mm 3 m/S 767 mmHg 44%
    20:00 +14°C° 0 mm 3 m/S 767 mmHg 45%
    21:00 +14°C° 0 mm 2 m/S 767 mmHg 47%
    22:00 +14°C° 0 mm 2 m/S 768 mmHg 48%
    23:00 +13°C° 0 mm 2 m/S 768 mmHg 49%

    1 Oktober, Sonntag

    Zeit Temperatur Niederschläge Wind Luftdruck Luftfeuchtigkeit
    00:00 +12°C° 0 mm 2 m/S 768 mmHg 50%
    01:00 +12°C° 0 mm 2 m/S 768 mmHg 51%
    02:00 +12°C° 0 mm 2 m/S 768 mmHg 52%
    03:00 +10°C° 0 mm 3 m/S 768 mmHg 52%
    04:00 +10°C° 0 mm 3 m/S 769 mmHg 52%
    05:00 +10°C° 0 mm 3 m/S 769 mmHg 53%
    06:00 +10°C° 0 mm 3 m/S 769 mmHg 53%
    07:00 +10°C° 0 mm 2 m/S 769 mmHg 53%
    08:00 +14°C° 0 mm 2 m/S 769 mmHg 48%
    09:00 +16°C° 0 mm 2 m/S 770 mmHg 43%
    10:00 +18°C° 0 mm 2 m/S 770 mmHg 38%
    11:00 +20°C° 0 mm 2 m/S 769 mmHg 35%
    12:00 +22°C° 0 mm 1 m/S 769 mmHg 31%
    13:00 +24°C° 0 mm 1 m/S 768 mmHg 28%
    14:00 +23°C° 0 mm 1 m/S 768 mmHg 28%
    15:00 +23°C° 0 mm 1 m/S 768 mmHg 29%
    16:00 +22°C° 0 mm 1 m/S 768 mmHg 30%
    17:00 +21°C° 0 mm 1 m/S 768 mmHg 34%
    18:00 +19°C° 0 mm 1 m/S 769 mmHg 39%
    19:00 +16°C° 0 mm 1 m/S 769 mmHg 43%
    20:00 +15°C° 0 mm 1 m/S 769 mmHg 46%
    21:00 +15°C° 0 mm 1 m/S 769 mmHg 49%
    22:00 +14°C° 0 mm 1 m/S 769 mmHg 52%
    23:00 +14°C° 0 mm 1 m/S 769 mmHg 54%
    Mehr zeigen